Weather History for Laurinburg-Maxton, NC

Change the Weather History Date:

Monday, April 8, 2013

  Actual Average (KLBT) Record (KLBT)
Temperature  
Mean Temperature 64 °F 60 °F  
Max Temperature 80 °F 73 °F 89 °F (2001)
Min Temperature 50 °F 47 °F 22 °F (2007)
Degree Days  
Heating Degree Days 0 6  
Month to date heating degree days 56  
Since 1 July heating degree days 2632  
Cooling Degree Days 0 1  
Month to date cooling degree days 8  
Year to date cooling degree days 21  
Growing Degree Days 14 (Base 50)    
Moisture  
Dew Point 53 °F    
Average Humidity 84    
Maximum Humidity 100    
Minimum Humidity 36    
Precipitation  
Precipitation 0.00 in 0.10 in 0.55 in (2003)
Month to date precipitation 0.86  
Year to date precipitation 10.06  
Sea Level Pressure  
Sea Level Pressure 30.15 in    
Wind  
Wind Speed 3 mph (SW)    
Max Wind Speed 13 mph    
Max Gust Speed 18 mph    
Visibility 5 miles    
Events Fog    
T = Trace of Precipitation, MM = Missing Value Source: NWS Daily Summary

Daily Weather History Graph

Daily Weather History Graph

Search for Another Location

Airport:

Trip Planner

Search our weather history database for the weather conditions in past years. The results will help you decide how hot, cold, wet, or windy it might be!

Date:

Astronomy

Apr. 08, 2013 Rise Set
Actual Time 6:54 AM EDT 7:44 PM EDT
Civil Twilight 6:28 AM EDT 8:10 PM EDT
Nautical Twilight 5:58 AM EDT 8:40 PM EDT
Astronomical Twilight 5:27 AM EDT 9:11 PM EDT
Moon 5:40 AM EDT (4/8) 6:19 PM EDT (4/8)
Length of Visible Light 13h 41m
Length of Day
12h 49m
Waning Crescent, 3% of the Moon is Illuminated
Apr 8
Waning Crescent
Apr 10
New
Apr 18
First Quarter
Apr 25
Full
May 2
Last Quarter

Hourly Weather History & Observations

Time (EDT) Temp. Dew Point Humidity Pressure Visibility Wind Dir Wind Speed Gust Speed Precip Events Conditions
12:52 AM 57.9 °F 53.1 °F 84% 30.15 in 10.0 mi SSW 8.1 mph - N/A   Clear
1:52 AM 57.0 °F 53.1 °F 87% 30.15 in 10.0 mi SSW 6.9 mph - N/A   Clear
2:52 AM 55.0 °F 52.0 °F 89% 30.14 in 10.0 mi Calm Calm - N/A   Clear
3:46 AM 53.6 °F 51.8 °F 94% 30.14 in 1.8 mi Calm Calm - N/A   Clear
3:52 AM 53.1 °F 52.0 °F 96% 30.14 in 1.2 mi Calm Calm - N/A   Clear
4:00 AM 53.6 °F 51.8 °F 94% 30.14 in 0.8 mi Calm Calm - N/A   Clear
4:06 AM 53.6 °F 51.8 °F 94% 30.14 in 2.0 mi Calm Calm - N/A   Clear
4:13 AM 53.6 °F 51.8 °F 94% 30.14 in 5.0 mi Calm Calm - N/A   Clear
4:25 AM 53.6 °F 51.8 °F 94% 30.14 in 1.5 mi Calm Calm - N/A   Partly Cloudy
4:35 AM 51.8 °F 51.8 °F 100% 30.14 in 4.0 mi Calm Calm - N/A   Clear
4:39 AM 53.6 °F 51.8 °F 94% 30.14 in 1.8 mi Calm Calm - N/A   Partly Cloudy
4:42 AM 53.6 °F 51.8 °F 94% 30.14 in 0.8 mi Calm Calm - N/A   Mist
4:49 AM 51.8 °F 51.8 °F 100% 30.14 in 0.2 mi Calm Calm - N/A Fog Fog
4:52 AM 51.1 °F 51.1 °F 100% 30.14 in 0.2 mi Calm Calm - N/A Fog Fog
5:07 AM 51.8 °F 51.8 °F 100% 30.14 in 0.8 mi Calm Calm - N/A   Mist
5:25 AM 50.0 °F 50.0 °F 100% 30.14 in 0.5 mi Calm Calm - N/A Fog Fog
5:52 AM 51.1 °F 50.0 °F 96% 30.14 in 0.2 mi Calm Calm - N/A Fog Fog
6:09 AM 50.0 °F 50.0 °F 100% 30.15 in 0.2 mi Calm Calm - N/A Fog Fog
6:27 AM 50.0 °F 50.0 °F 100% 30.16 in 0.8 mi Calm Calm - N/A   Mist
6:32 AM 50.0 °F 50.0 °F 100% 30.16 in 2.0 mi Calm Calm - N/A   Overcast
6:41 AM 50.0 °F 50.0 °F 100% 30.16 in 1.0 mi Calm Calm - N/A   Overcast
6:48 AM 51.8 °F 51.8 °F 100% 30.17 in 0.8 mi Calm Calm - N/A   Overcast
6:52 AM 50.0 °F 50.0 °F 100% 30.17 in 0.5 mi Calm Calm - N/A Fog Fog
7:22 AM 53.6 °F 53.6 °F 100% 30.18 in 0.2 mi Calm Calm - N/A Fog Fog
7:42 AM 53.6 °F 53.6 °F 100% 30.19 in 0.2 mi Calm Calm - N/A Fog Fog
7:52 AM 54.0 °F 54.0 °F 100% 30.19 in 0.2 mi Calm Calm - N/A Fog Fog
8:05 AM 55.4 °F 55.4 °F 100% 30.20 in 0.2 mi Calm Calm - N/A Fog Fog
8:15 AM 55.4 °F 55.4 °F 100% 30.20 in 0.2 mi Calm Calm - N/A Fog Fog
8:52 AM 55.9 °F 55.9 °F 100% 30.21 in 0.5 mi SW 3.5 mph - N/A Fog Fog
9:00 AM 55.4 °F 55.4 °F 100% 30.21 in 1.0 mi West 3.5 mph - N/A   Overcast
9:14 AM 57.2 °F 57.2 °F 100% 30.21 in 3.0 mi Calm Calm - N/A   Overcast
9:41 AM 57.2 °F 57.2 °F 100% 30.21 in 7.0 mi SSW 3.5 mph - N/A   Overcast
9:52 AM 57.9 °F 57.0 °F 97% 30.21 in 8.0 mi SW 4.6 mph - N/A   Mostly Cloudy
10:52 AM 66.0 °F 55.9 °F 70% 30.21 in 10.0 mi WSW 6.9 mph - N/A   Mostly Cloudy
11:52 AM 72.0 °F 54.0 °F 53% 30.19 in 10.0 mi SW 12.7 mph - N/A   Partly Cloudy
12:52 PM 75.9 °F 52.0 °F 43% 30.18 in 10.0 mi WNW 9.2 mph - N/A   Clear
1:52 PM 75.9 °F 52.0 °F 43% 30.14 in 10.0 mi WSW 11.5 mph 18.4 mph N/A   Clear
2:52 PM 78.1 °F 52.0 °F 40% 30.12 in 10.0 mi WSW 8.1 mph 17.3 mph N/A   Scattered Clouds
3:52 PM 78.1 °F 50.0 °F 37% 30.11 in 10.0 mi SSW 11.5 mph - N/A   Clear
4:52 PM 79.0 °F 50.0 °F 36% 30.09 in 10.0 mi South 10.4 mph 17.3 mph N/A   Partly Cloudy
5:52 PM 77.0 °F 51.1 °F 40% 30.09 in 10.0 mi SSW 8.1 mph - N/A   Partly Cloudy
6:52 PM 75.9 °F 52.0 °F 43% 30.09 in 10.0 mi SSW 11.5 mph - N/A   Clear
7:52 PM 70.0 °F 53.1 °F 55% 30.10 in 10.0 mi SSW 4.6 mph - N/A   Clear
8:52 PM 68.0 °F 54.0 °F 61% 30.12 in 10.0 mi South 9.2 mph - N/A   Clear
9:52 PM 66.9 °F 55.0 °F 66% 30.13 in 10.0 mi South 10.4 mph - N/A   Clear
10:52 PM 64.9 °F 55.9 °F 73% 30.14 in 10.0 mi South 8.1 mph - N/A   Clear
11:52 PM 64.0 °F 55.9 °F 75% 30.14 in 10.0 mi SSW 8.1 mph - N/A   Clear